Registrering Status Plassering
LN-FAW Operativ Kjeller 

Søk
Kontakt informasjon

Follo flyklubb.
Postboks 226, N-1401 Ski
Epost: post@follo-flyklubb.no

Tel: 47 25 54 90
Du er her: Hovedside

Velkommen til Follo flyklubb

 

Follo flyklubb er en flyklubb med primærbase på Ski flyplass, og sekundærbase (vinterbase) på Rakkestad flyplass. Disse websidene er ment som en informasjonskanal til flyklubbens medlemmer, og andre som måtte være interessert i Follo flyklubbs virksomhet. Har du kommentarer eller bidrag du ønsker å dele med flyklubben, send oss en melding her.

Har noen av flyklubbens medlemmer forslag til turer, aktiviteter eller kurs- og infokvelder dere ønsker at vi deltar på eller avholder, så gi beskjed til styret via epost.

 

Før flyturen: Ta en sjekk på datoer i sertifikatene dine. Husk at det er forskjell på gyldighetsdato for PPL-sertifikatet og klasserettighet, som f.eks. SEP. Her er noen nyttige spørsmål, og litt om rettigheter her.

ENGM 191120Z 06007KT 9999 BKN013 M01/M04 Q1040 TEMPO BKN016
ENTO 191120Z 02008KT 350V050 9999 OVC017 00/M03 Q1039
ENRY 191120Z 01007KT 9999 OVC021 01/M04 Q1040 NOSIG
ENSN 090850Z 20010G22KT 150V240 CAVOK 07/03 Q1000
ENCN 191120Z 03012KT 9999 VCSH BKN018 02/M01 Q1038
ENZV 191120Z 15003KT 9999 BKN020 05/03 Q1036 NOSIG
ENFL 191120Z 09006KT 9999 FEW005 05/03 Q1037
ENFG 220850Z 19007KT CAVOK 06/M03 Q1014
ENNO 191050Z 28003KT 260V360 9999 SCT020 M01/M02 Q1040
 

Leie av LN-FAW

Follo flyklubbs medlemmer har anledning til å leie LN-FAW, booking skjer via MyWebLog. Husk å loggføre turen etter turen.